Time,TemperatureF,DewpointF,PressureIn,WindDirection,WindDirectionDegrees,WindSpeedMPH,WindSpeedGustMPH,Humidity,HourlyPrecipIn,Conditions,Clouds,dailyrainin,SoftwareType,DateUTC
2013-06-05 00:02:00,61.3,58.3,30.04,East,101,0.0,1.0,90,0.00,,---,0.00,VWS V14.01,2013-06-05 05:02:00,
2013-06-05 00:07:00,61.3,58.3,30.04,East,101,0.0,1.0,90,0.00,,---,0.00,VWS V14.01,2013-06-05 05:07:00,
2013-06-05 00:12:00,61.2,58.2,30.04,East,101,0.0,1.0,90,0.00,,---,0.00,VWS V14.01,2013-06-05 05:12:00,
2013-06-05 00:17:00,61.1,58.2,30.04,East,101,0.0,0.0,90,0.00,,---,0.00,VWS V14.01,2013-06-05 05:17:00,
2013-06-05 00:22:00,61.0,58.0,30.03,East,101,0.0,1.0,90,0.00,,---,0.00,VWS V14.01,2013-06-05 05:22:00,
2013-06-05 00:27:00,61.1,58.2,30.03,East,101,0.0,0.0,90,0.00,,---,0.00,VWS V14.01,2013-06-05 05:27:00,
2013-06-05 00:32:00,61.0,58.0,30.03,East,101,1.0,2.0,90,0.00,,---,0.00,VWS V14.01,2013-06-05 05:32:00,
2013-06-05 00:37:00,61.0,57.4,30.03,East,101,0.0,2.0,88,0.00,,---,0.00,VWS V14.01,2013-06-05 05:37:00,
2013-06-05 00:42:00,61.2,57.3,30.02,East,101,1.0,3.0,87,0.00,,---,0.00,VWS V14.01,2013-06-05 05:42:00,
2013-06-05 00:47:00,61.6,57.4,30.02,East,94,2.0,3.0,86,0.00,,---,0.00,VWS V14.01,2013-06-05 05:47:00,
2013-06-05 00:52:00,61.8,57.6,30.02,East,94,2.0,3.0,86,0.00,,---,0.00,VWS V14.01,2013-06-05 05:52:00,
2013-06-05 00:57:00,61.9,57.3,30.02,ESE,107,1.0,3.0,85,0.00,,---,0.00,VWS V14.01,2013-06-05 05:57:00,
2013-06-05 01:02:00,62.1,57.5,30.01,SE,138,0.0,4.0,85,0.00,,---,0.00,VWS V14.01,2013-06-05 06:02:00,
2013-06-05 01:07:00,62.3,57.4,30.01,SE,130,0.0,5.0,84,0.00,,---,0.00,VWS V14.01,2013-06-05 06:07:00,
2013-06-05 01:13:00,62.5,57.6,30.01,East,97,0.0,5.0,84,0.00,,---,0.00,VWS V14.01,2013-06-05 06:13:00,
2013-06-05 01:18:00,62.5,57.3,30.01,ESE,113,3.0,3.0,83,0.00,,---,0.00,VWS V14.01,2013-06-05 06:18:00,
2013-06-05 01:23:00,62.6,57.4,30.01,SE,131,2.0,6.0,83,0.00,,---,0.00,VWS V14.01,2013-06-05 06:23:00,
2013-06-05 01:28:00,62.7,57.5,30.01,ESE,111,0.0,5.0,83,0.00,,---,0.00,VWS V14.01,2013-06-05 06:28:00,
2013-06-05 01:33:00,62.7,57.5,30.01,ESE,119,0.0,3.0,83,0.00,,---,0.00,VWS V14.01,2013-06-05 06:33:00,
2013-06-05 01:38:00,62.8,57.2,30.01,ESE,117,2.0,3.0,82,0.00,,---,0.00,VWS V14.01,2013-06-05 06:38:00,
2013-06-05 01:43:00,62.8,57.2,30.01,ESE,117,1.0,3.0,82,0.00,,---,0.00,VWS V14.01,2013-06-05 06:43:00,
2013-06-05 01:48:00,62.7,57.1,30.01,ESE,117,0.0,2.0,82,0.00,,---,0.00,VWS V14.01,2013-06-05 06:48:00,
2013-06-05 01:53:00,62.7,57.1,30.01,ESE,116,0.0,2.0,82,0.00,,---,0.00,VWS V14.01,2013-06-05 06:53:00,
2013-06-05 01:58:00,62.6,57.0,30.01,ESE,116,0.0,3.0,82,0.00,,---,0.00,VWS V14.01,2013-06-05 06:58:00,
2013-06-05 02:03:00,62.6,57.0,30.01,ESE,116,0.0,1.0,82,0.00,,---,0.00,VWS V14.01,2013-06-05 07:03:00,
2013-06-05 02:08:00,62.5,57.6,30.01,ESE,116,0.0,2.0,84,0.00,,---,0.00,VWS V14.01,2013-06-05 07:08:00,
2013-06-05 02:13:00,62.4,57.5,30.01,ESE,116,0.0,1.0,84,0.00,,---,0.00,VWS V14.01,2013-06-05 07:13:00,
2013-06-05 02:18:00,62.2,57.0,30.00,ESE,116,0.0,2.0,83,0.00,,---,0.00,VWS V14.01,2013-06-05 07:18:00,
2013-06-05 02:23:00,62.1,56.9,30.00,ESE,116,0.0,2.0,83,0.00,,---,0.00,VWS V14.01,2013-06-05 07:23:00,
2013-06-05 02:28:00,62.1,57.5,30.01,ESE,116,0.0,1.0,85,0.00,,---,0.00,VWS V14.01,2013-06-05 07:28:00,
2013-06-05 02:33:00,61.8,57.6,30.01,ESE,116,0.0,0.0,86,0.00,,---,0.00,VWS V14.01,2013-06-05 07:33:00,
2013-06-05 02:38:00,61.6,57.4,30.01,ESE,116,0.0,1.0,86,0.00,,---,0.00,VWS V14.01,2013-06-05 07:38:00,
2013-06-05 02:43:00,61.4,57.5,30.01,ESE,116,0.0,0.0,87,0.00,,---,0.00,VWS V14.01,2013-06-05 07:43:00,
2013-06-05 02:48:00,61.1,57.2,30.00,ESE,116,0.0,1.0,87,0.00,,---,0.00,VWS V14.01,2013-06-05 07:48:00,
2013-06-05 02:53:00,60.9,57.3,30.01,ESE,116,0.0,1.0,88,0.00,,---,0.00,VWS V14.01,2013-06-05 07:53:00,
2013-06-05 02:58:00,60.7,57.1,30.00,ESE,116,0.0,0.0,88,0.00,,---,0.00,VWS V14.01,2013-06-05 07:58:00,
2013-06-05 03:03:00,60.4,57.2,30.00,ESE,116,2.0,2.0,89,0.00,,---,0.00,VWS V14.01,2013-06-05 08:03:00,
2013-06-05 03:08:00,60.3,57.4,30.00,ESE,116,0.0,1.0,90,0.00,,---,0.00,VWS V14.01,2013-06-05 08:08:00,
2013-06-05 03:13:00,60.0,57.1,30.00,ESE,116,0.0,0.0,90,0.00,,---,0.00,VWS V14.01,2013-06-05 08:13:00,
2013-06-05 03:18:00,59.8,56.9,30.01,ESE,116,0.0,0.0,90,0.00,,---,0.00,VWS V14.01,2013-06-05 08:18:00,
2013-06-05 03:23:00,59.5,56.6,30.01,ESE,116,2.0,3.0,90,0.00,,---,0.00,VWS V14.01,2013-06-05 08:23:00,
2013-06-05 03:28:00,59.3,56.4,30.01,ESE,116,0.0,2.0,90,0.00,,---,0.00,VWS V14.01,2013-06-05 08:28:00,
2013-06-05 03:33:00,59.3,56.7,30.01,ESE,116,0.0,0.0,91,0.00,,---,0.00,VWS V14.01,2013-06-05 08:33:00,
2013-06-05 03:38:00,59.3,56.7,30.01,ESE,116,2.0,3.0,91,0.00,,---,0.00,VWS V14.01,2013-06-05 08:38:00,
2013-06-05 03:43:00,59.3,56.7,30.01,ESE,116,0.0,2.0,91,0.00,,---,0.00,VWS V14.01,2013-06-05 08:43:00,
2013-06-05 03:48:00,59.2,56.6,30.01,ESE,116,0.0,2.0,91,0.00,,---,0.00,VWS V14.01,2013-06-05 08:48:00,
2013-06-05 03:53:00,59.1,56.5,30.01,ESE,116,1.0,3.0,91,0.00,,---,0.00,VWS V14.01,2013-06-05 08:53:00,
2013-06-05 03:58:00,59.1,56.5,30.02,ESE,116,0.0,1.0,91,0.00,,---,0.00,VWS V14.01,2013-06-05 08:58:00,
2013-06-05 04:03:00,59.0,56.4,30.02,ESE,116,0.0,1.0,91,0.00,,---,0.00,VWS V14.01,2013-06-05 09:03:00,
2013-06-05 04:08:00,59.0,56.4,30.02,ESE,116,0.0,1.0,91,0.00,,---,0.00,VWS V14.01,2013-06-05 09:08:00,
2013-06-05 04:13:00,58.9,56.3,30.02,ESE,116,0.0,0.0,91,0.00,,---,0.00,VWS V14.01,2013-06-05 09:13:00,
2013-06-05 04:18:00,58.9,56.3,30.01,ESE,116,0.0,0.0,91,0.00,,---,0.00,VWS V14.01,2013-06-05 09:18:00,
2013-06-05 04:23:00,58.9,56.6,30.01,ESE,116,0.0,0.0,92,0.00,,---,0.00,VWS V14.01,2013-06-05 09:23:00,
2013-06-05 04:28:00,58.8,56.5,30.02,ESE,116,1.0,1.0,92,0.00,,---,0.00,VWS V14.01,2013-06-05 09:28:00,
2013-06-05 04:33:00,58.7,56.4,30.02,ESE,116,0.0,2.0,92,0.00,,---,0.00,VWS V14.01,2013-06-05 09:33:00,
2013-06-05 04:38:00,58.6,56.3,30.01,ESE,116,0.0,0.0,92,0.00,,---,0.00,VWS V14.01,2013-06-05 09:38:00,
2013-06-05 04:43:00,58.5,56.2,30.01,ESE,116,0.0,2.0,92,0.00,,---,0.00,VWS V14.01,2013-06-05 09:43:00,
2013-06-05 04:48:00,58.4,56.1,30.01,ESE,116,0.0,0.0,92,0.00,,---,0.00,VWS V14.01,2013-06-05 09:48:00,
2013-06-05 04:53:00,58.4,56.1,30.01,ESE,116,0.0,0.0,92,0.00,,---,0.00,VWS V14.01,2013-06-05 09:53:00,
2013-06-05 04:58:00,58.3,56.0,30.01,ESE,116,1.0,1.0,92,0.00,,---,0.00,VWS V14.01,2013-06-05 09:58:00,
2013-06-05 05:03:00,58.1,55.8,30.01,ESE,116,0.0,0.0,92,0.00,,---,0.00,VWS V14.01,2013-06-05 10:03:00,
2013-06-05 05:08:00,58.0,56.0,30.01,ESE,116,0.0,0.0,93,0.00,,---,0.00,VWS V14.01,2013-06-05 10:08:00,
2013-06-05 05:13:00,57.8,55.8,30.01,ESE,116,0.0,1.0,93,0.00,,---,0.00,VWS V14.01,2013-06-05 10:13:00,
2013-06-05 05:18:00,57.7,55.7,30.02,ESE,116,0.0,1.0,93,0.00,,---,0.00,VWS V14.01,2013-06-05 10:18:00,
2013-06-05 05:23:00,57.7,55.7,30.02,ESE,116,0.0,0.0,93,0.00,,---,0.00,VWS V14.01,2013-06-05 10:23:00,
2013-06-05 05:28:00,57.6,55.6,30.03,ESE,116,0.0,0.0,93,0.00,,---,0.00,VWS V14.01,2013-06-05 10:28:00,
2013-06-05 05:33:00,57.5,55.5,30.03,ESE,116,0.0,0.0,93,0.00,,---,0.00,VWS V14.01,2013-06-05 10:33:00,
2013-06-05 05:38:00,57.5,55.5,30.03,ESE,116,0.0,0.0,93,0.00,,---,0.00,VWS V14.01,2013-06-05 10:38:00,
2013-06-05 05:43:00,57.4,55.7,30.03,ESE,116,0.0,0.0,94,0.00,,---,0.00,VWS V14.01,2013-06-05 10:43:00,
2013-06-05 05:49:00,57.4,55.7,30.03,ESE,116,0.0,0.0,94,0.00,,---,0.00,VWS V14.01,2013-06-05 10:49:00,
2013-06-05 05:54:00,57.5,55.8,30.02,ESE,116,0.0,1.0,94,0.00,,---,0.00,VWS V14.01,2013-06-05 10:54:00,
2013-06-05 05:59:00,57.6,55.9,30.03,ESE,116,0.0,0.0,94,0.00,,---,0.00,VWS V14.01,2013-06-05 10:59:00,
2013-06-05 06:04:00,57.6,55.9,30.02,ESE,116,0.0,2.0,94,0.00,,---,0.00,VWS V14.01,2013-06-05 11:04:00,
2013-06-05 06:09:00,57.6,55.9,30.02,ESE,116,0.0,4.0,94,0.00,,---,0.00,VWS V14.01,2013-06-05 11:09:00,
2013-06-05 06:13:00,57.8,56.1,30.02,ENE,69,2.0,4.0,94,0.00,,---,0.00,VWS V14.01,2013-06-05 11:13:00,
2013-06-05 06:19:00,58.0,56.3,30.01,ENE,69,3.0,4.0,94,0.00,,---,0.00,VWS V14.01,2013-06-05 11:19:00,
2013-06-05 06:24:00,58.2,56.5,30.01,ENE,69,0.0,2.0,94,0.00,,---,0.00,VWS V14.01,2013-06-05 11:24:00,
2013-06-05 06:29:00,58.4,57.0,30.01,ENE,69,0.0,0.0,95,0.00,,---,0.00,VWS V14.01,2013-06-05 11:29:00,
2013-06-05 06:34:00,58.6,56.9,30.01,East,79,0.0,3.0,94,0.00,,---,0.00,VWS V14.01,2013-06-05 11:34:00,
2013-06-05 06:39:00,58.7,57.0,30.01,East,79,0.0,1.0,94,0.00,,---,0.00,VWS V14.01,2013-06-05 11:39:00,
2013-06-05 06:44:00,58.8,57.1,30.01,East,79,0.0,2.0,94,0.00,,---,0.00,VWS V14.01,2013-06-05 11:44:00,
2013-06-05 06:49:00,59.0,57.3,30.01,East,79,0.0,1.0,94,0.00,,---,0.00,VWS V14.01,2013-06-05 11:49:00,
2013-06-05 06:54:00,59.1,57.1,30.02,East,79,0.0,2.0,93,0.00,,---,0.00,VWS V14.01,2013-06-05 11:54:00,
2013-06-05 06:59:00,59.4,57.7,30.02,East,79,0.0,2.0,94,0.00,,---,0.00,VWS V14.01,2013-06-05 11:59:00,
2013-06-05 07:04:00,59.6,57.6,30.01,East,79,0.0,2.0,93,0.00,,---,0.00,VWS V14.01,2013-06-05 12:04:00,
2013-06-05 07:09:00,59.9,57.9,30.01,East,79,0.0,3.0,93,0.00,,---,0.00,VWS V14.01,2013-06-05 12:09:00,
2013-06-05 07:14:00,60.3,58.3,30.01,East,79,0.0,2.0,93,0.00,,---,0.00,VWS V14.01,2013-06-05 12:14:00,
2013-06-05 07:19:00,60.7,58.4,30.01,East,79,3.0,5.0,92,0.00,,---,0.00,VWS V14.01,2013-06-05 12:19:00,
2013-06-05 07:24:00,61.1,58.5,30.01,East,79,0.0,2.0,91,0.00,,---,0.00,VWS V14.01,2013-06-05 12:24:00,
2013-06-05 07:29:00,61.4,58.5,30.00,East,79,2.0,2.0,90,0.00,,---,0.00,VWS V14.01,2013-06-05 12:29:00,
2013-06-05 07:34:00,61.8,58.5,30.00,East,79,0.0,3.0,89,0.00,,---,0.00,VWS V14.01,2013-06-05 12:34:00,
2013-06-05 07:39:00,62.1,58.5,29.99,East,79,1.0,3.0,88,0.00,,---,0.00,VWS V14.01,2013-06-05 12:39:00,
2013-06-05 07:44:00,62.5,58.9,29.98,ESE,105,0.0,5.0,88,0.00,,---,0.00,VWS V14.01,2013-06-05 12:44:00,
2013-06-05 07:49:00,62.9,59.0,29.98,ESE,113,1.0,4.0,87,0.00,,---,0.00,VWS V14.01,2013-06-05 12:49:00,
2013-06-05 07:54:00,63.4,59.2,29.98,ESE,113,0.0,2.0,86,0.00,,---,0.00,VWS V14.01,2013-06-05 12:54:00,
2013-06-05 07:59:00,63.8,59.2,29.98,ESE,113,2.0,4.0,85,0.00,,---,0.00,VWS V14.01,2013-06-05 12:59:00,
2013-06-05 08:04:00,64.2,59.6,29.98,ESE,102,1.0,1.0,85,0.00,,---,0.00,VWS V14.01,2013-06-05 13:04:00,
2013-06-05 08:09:00,64.6,60.0,29.98,ESE,103,0.0,3.0,85,0.00,,---,0.00,VWS V14.01,2013-06-05 13:09:00,
2013-06-05 08:14:00,64.8,59.9,29.98,ESE,103,1.0,4.0,84,0.00,,---,0.00,VWS V14.01,2013-06-05 13:14:00,
2013-06-05 08:19:00,65.1,59.8,29.97,East,101,3.0,5.0,83,0.00,,---,0.00,VWS V14.01,2013-06-05 13:19:00,
2013-06-05 08:24:00,65.5,60.2,29.97,East,101,0.0,3.0,83,0.00,,---,0.00,VWS V14.01,2013-06-05 13:24:00,
2013-06-05 08:29:00,66.0,60.7,29.97,East,84,0.0,3.0,83,0.00,,---,0.00,VWS V14.01,2013-06-05 13:29:00,
2013-06-05 08:34:00,66.5,60.2,29.97,East,90,2.0,5.0,80,0.00,,---,0.00,VWS V14.01,2013-06-05 13:34:00,
2013-06-05 08:39:00,67.0,59.9,29.97,East,90,0.0,2.0,78,0.00,,---,0.00,VWS V14.01,2013-06-05 13:39:00,
2013-06-05 08:44:00,67.5,60.0,29.97,ENE,67,0.0,7.0,77,0.00,,---,0.00,VWS V14.01,2013-06-05 13:44:00,
2013-06-05 08:49:00,67.9,59.7,29.97,ESE,108,1.0,7.0,75,0.00,,---,0.00,VWS V14.01,2013-06-05 13:49:00,
2013-06-05 08:54:00,68.3,60.1,29.97,ESE,102,0.0,5.0,75,0.00,,---,0.00,VWS V14.01,2013-06-05 13:54:00,
2013-06-05 08:59:00,68.6,60.4,29.98,ESE,102,0.0,3.0,75,0.00,,---,0.00,VWS V14.01,2013-06-05 13:59:00,
2013-06-05 09:04:00,68.9,60.3,29.98,ESE,102,1.0,4.0,74,0.00,,---,0.00,VWS V14.01,2013-06-05 14:04:00,
2013-06-05 09:09:00,69.1,60.5,29.98,ESE,102,0.0,2.0,74,0.00,,---,0.00,VWS V14.01,2013-06-05 14:09:00,
2013-06-05 09:14:00,69.4,60.8,29.98,ESE,103,2.0,3.0,74,0.00,,---,0.00,VWS V14.01,2013-06-05 14:14:00,
2013-06-05 09:19:00,69.7,61.0,29.97,SE,143,0.0,5.0,74,0.00,,---,0.00,VWS V14.01,2013-06-05 14:19:00,
2013-06-05 09:24:00,70.1,61.4,29.98,SE,128,3.0,4.0,74,0.00,,---,0.00,VWS V14.01,2013-06-05 14:24:00,
2013-06-05 09:29:00,70.3,60.5,29.97,SSE,152,2.0,5.0,71,0.00,,---,0.00,VWS V14.01,2013-06-05 14:29:00,
2013-06-05 09:34:00,70.6,61.1,29.98,SSE,153,2.0,4.0,72,0.00,,---,0.00,VWS V14.01,2013-06-05 14:34:00,
2013-06-05 09:39:00,70.8,61.3,29.97,SE,146,0.0,3.0,72,0.00,,---,0.00,VWS V14.01,2013-06-05 14:39:00,
2013-06-05 09:44:00,71.0,60.7,29.97,ESE,109,3.0,4.0,70,0.00,,---,0.00,VWS V14.01,2013-06-05 14:44:00,
2013-06-05 09:49:00,71.3,61.0,29.97,SSE,154,3.0,5.0,70,0.00,,---,0.00,VWS V14.01,2013-06-05 14:49:00,
2013-06-05 09:54:00,71.7,61.8,29.97,SE,138,0.0,3.0,71,0.00,,---,0.00,VWS V14.01,2013-06-05 14:54:00,
2013-06-05 09:59:00,72.1,61.8,29.97,ESE,108,3.0,4.0,70,0.00,,---,0.00,VWS V14.01,2013-06-05 14:59:00,
2013-06-05 10:04:00,72.4,61.7,29.97,ESE,105,3.0,5.0,69,0.00,,---,0.00,VWS V14.01,2013-06-05 15:04:00,
2013-06-05 10:09:00,72.7,62.4,29.96,ESE,106,4.0,4.0,70,0.00,,---,0.00,VWS V14.01,2013-06-05 15:09:00,
2013-06-05 10:14:00,73.1,62.7,29.97,SSE,150,5.0,5.0,70,0.00,,---,0.00,VWS V14.01,2013-06-05 15:14:00,
2013-06-05 10:19:00,73.7,63.3,29.97,SSE,161,3.0,4.0,70,0.00,,---,0.00,VWS V14.01,2013-06-05 15:19:00,
2013-06-05 10:24:00,74.2,62.5,29.97,SSW,213,2.0,4.0,67,0.00,,---,0.00,VWS V14.01,2013-06-05 15:24:00,
2013-06-05 10:29:00,74.7,63.5,29.98,SSE,153,0.0,2.0,68,0.00,,---,0.00,VWS V14.01,2013-06-05 15:29:00,
2013-06-05 10:34:00,75.0,62.9,29.98,SSE,159,2.0,4.0,66,0.00,,---,0.00,VWS V14.01,2013-06-05 15:34:00,
2013-06-05 10:39:00,75.3,63.2,29.98,SSE,159,2.0,2.0,66,0.00,,---,0.00,VWS V14.01,2013-06-05 15:39:00,
2013-06-05 10:44:00,75.6,63.9,29.98,South,186,0.0,5.0,67,0.00,,---,0.00,VWS V14.01,2013-06-05 15:44:00,
2013-06-05 10:49:00,76.0,64.3,29.98,South,186,0.0,3.0,67,0.00,,---,0.00,VWS V14.01,2013-06-05 15:49:00,
2013-06-05 10:54:00,76.4,63.8,29.98,South,185,3.0,3.0,65,0.00,,---,0.00,VWS V14.01,2013-06-05 15:54:00,
2013-06-05 10:59:00,76.7,64.5,29.98,SSW,207,3.0,4.0,66,0.00,,---,0.00,VWS V14.01,2013-06-05 15:59:00,
2013-06-05 11:04:00,76.9,63.8,29.98,SSW,198,1.0,6.0,64,0.00,,---,0.00,VWS V14.01,2013-06-05 16:04:00,
2013-06-05 11:09:00,77.2,65.0,29.97,SSW,192,3.0,6.0,66,0.00,,---,0.00,VWS V14.01,2013-06-05 16:09:00,
2013-06-05 11:15:00,77.5,64.8,29.98,SSE,159,4.0,6.0,65,0.00,,---,0.00,VWS V14.01,2013-06-05 16:15:00,
2013-06-05 11:20:00,77.5,63.5,29.98,South,171,1.0,6.0,62,0.00,,---,0.00,VWS V14.01,2013-06-05 16:20:00,
2013-06-05 11:25:00,77.5,63.5,29.98,South,174,1.0,7.0,62,0.00,,---,0.00,VWS V14.01,2013-06-05 16:25:00,
2013-06-05 11:30:00,77.6,64.0,29.98,South,179,2.0,6.0,63,0.00,,---,0.00,VWS V14.01,2013-06-05 16:30:00,
2013-06-05 11:35:00,77.7,63.7,29.98,South,182,3.0,7.0,62,0.00,,---,0.00,VWS V14.01,2013-06-05 16:35:00,
2013-06-05 11:40:00,77.6,63.6,29.97,SSE,165,3.0,6.0,62,0.00,,---,0.00,VWS V14.01,2013-06-05 16:40:00,
2013-06-05 11:45:00,77.7,63.7,29.97,SE,140,0.0,5.0,62,0.00,,---,0.00,VWS V14.01,2013-06-05 16:45:00,
2013-06-05 11:50:00,77.9,64.3,29.97,SE,125,3.0,4.0,63,0.00,,---,0.00,VWS V14.01,2013-06-05 16:50:00,
2013-06-05 11:55:00,77.9,63.8,29.97,SSE,150,3.0,7.0,62,0.00,,---,0.00,VWS V14.01,2013-06-05 16:55:00,
2013-06-05 12:00:00,77.7,63.2,29.97,South,190,4.0,7.0,61,0.00,,---,0.00,VWS V14.01,2013-06-05 17:00:00,
2013-06-05 12:05:00,77.6,64.0,29.96,SW,228,1.0,7.0,63,0.00,,---,0.00,VWS V14.01,2013-06-05 17:05:00,
2013-06-05 12:10:00,77.7,63.7,29.97,SSW,197,1.0,7.0,62,0.00,,---,0.00,VWS V14.01,2013-06-05 17:10:00,
2013-06-05 12:15:00,78.0,63.9,29.96,South,184,3.0,7.0,62,0.00,,---,0.00,VWS V14.01,2013-06-05 17:15:00,
2013-06-05 12:20:00,78.2,63.2,29.96,South,180,2.0,7.0,60,0.00,,---,0.00,VWS V14.01,2013-06-05 17:20:00,
2013-06-05 12:25:00,78.4,64.3,29.97,SW,224,2.0,6.0,62,0.00,,---,0.00,VWS V14.01,2013-06-05 17:25:00,
2013-06-05 12:30:00,78.6,64.5,29.96,SSE,158,4.0,4.0,62,0.00,,---,0.00,VWS V14.01,2013-06-05 17:30:00,
2013-06-05 12:35:00,78.8,64.2,29.97,SSE,150,1.0,5.0,61,0.00,,---,0.00,VWS V14.01,2013-06-05 17:35:00,
2013-06-05 12:40:00,78.7,63.7,29.96,SSE,149,2.0,4.0,60,0.00,,---,0.00,VWS V14.01,2013-06-05 17:40:00,
2013-06-05 12:45:00,78.7,64.6,29.96,SSE,148,0.0,4.0,62,0.00,,---,0.00,VWS V14.01,2013-06-05 17:45:00,
2013-06-05 12:50:00,78.8,65.2,29.96,SSE,157,3.0,6.0,63,0.00,,---,0.00,VWS V14.01,2013-06-05 17:50:00,
2013-06-05 12:55:00,79.1,64.5,29.96,SSE,166,5.0,8.0,61,0.00,,---,0.00,VWS V14.01,2013-06-05 17:55:00,
2013-06-05 13:00:00,79.2,64.1,29.95,SSE,162,1.0,5.0,60,0.00,,---,0.00,VWS V14.01,2013-06-05 18:00:00,
2013-06-05 13:05:00,79.2,64.1,29.95,SSE,163,2.0,4.0,60,0.00,,---,0.00,VWS V14.01,2013-06-05 18:05:00,
2013-06-05 13:10:00,79.4,64.3,29.95,SSE,162,2.0,4.0,60,0.00,,---,0.00,VWS V14.01,2013-06-05 18:10:00,
2013-06-05 13:15:00,79.6,65.0,29.94,SSE,163,2.0,7.0,61,0.00,,---,0.00,VWS V14.01,2013-06-05 18:15:00,
2013-06-05 13:20:00,79.9,64.8,29.94,SSE,163,1.0,3.0,60,0.00,,---,0.00,VWS V14.01,2013-06-05 18:20:00,
2013-06-05 13:25:00,80.0,64.4,29.94,SE,142,0.0,4.0,59,0.00,,---,0.00,VWS V14.01,2013-06-05 18:25:00,
2013-06-05 13:30:00,79.9,65.7,29.94,SW,218,0.0,7.0,62,0.00,,---,0.00,VWS V14.01,2013-06-05 18:30:00,
2013-06-05 13:35:00,80.0,64.9,29.93,SSW,209,0.0,5.0,60,0.00,,---,0.00,VWS V14.01,2013-06-05 18:35:00,
2013-06-05 13:40:00,80.1,64.0,29.93,SSW,212,0.0,5.0,58,0.00,,---,0.00,VWS V14.01,2013-06-05 18:40:00,
2013-06-05 13:45:00,80.3,65.6,29.92,SSW,195,2.0,3.0,61,0.00,,---,0.00,VWS V14.01,2013-06-05 18:45:00,
2013-06-05 13:50:00,80.5,64.9,29.93,South,184,2.0,4.0,59,0.00,,---,0.00,VWS V14.01,2013-06-05 18:50:00,
2013-06-05 13:55:00,80.5,65.3,29.93,South,173,1.0,5.0,60,0.00,,---,0.00,VWS V14.01,2013-06-05 18:55:00,
2013-06-05 14:00:00,80.5,63.9,29.92,South,173,2.0,3.0,57,0.00,,---,0.00,VWS V14.01,2013-06-05 19:00:00,
2013-06-05 14:05:00,80.3,64.7,29.92,South,173,3.0,4.0,59,0.00,,---,0.00,VWS V14.01,2013-06-05 19:05:00,
2013-06-05 14:10:00,80.2,64.6,29.92,South,186,2.0,5.0,59,0.00,,---,0.00,VWS V14.01,2013-06-05 19:10:00,
2013-06-05 14:15:00,80.4,65.7,29.92,SSE,157,2.0,5.0,61,0.00,,---,0.00,VWS V14.01,2013-06-05 19:15:00,
2013-06-05 14:20:00,80.6,65.0,29.92,SSW,211,1.0,5.0,59,0.00,,---,0.00,VWS V14.01,2013-06-05 19:20:00,
2013-06-05 14:25:00,80.8,65.2,29.91,SW,234,2.0,5.0,59,0.00,,---,0.00,VWS V14.01,2013-06-05 19:25:00,
2013-06-05 14:30:00,80.8,63.7,29.91,SSW,208,5.0,6.0,56,0.00,,---,0.00,VWS V14.01,2013-06-05 19:30:00,
2013-06-05 14:35:00,80.7,63.6,29.91,South,173,1.0,6.0,56,0.00,,---,0.00,VWS V14.01,2013-06-05 19:35:00,
2013-06-05 14:40:00,80.8,63.7,29.91,West,261,7.0,8.0,56,0.00,,---,0.00,VWS V14.01,2013-06-05 19:40:00,
2013-06-05 14:45:00,80.9,64.8,29.91,WSW,250,2.0,5.0,58,0.00,,---,0.00,VWS V14.01,2013-06-05 19:45:00,
2013-06-05 14:50:00,81.0,65.8,29.91,WSW,250,3.0,3.0,60,0.00,,---,0.00,VWS V14.01,2013-06-05 19:50:00,
2013-06-05 14:55:00,81.2,65.0,29.90,WSW,249,0.0,3.0,58,0.00,,---,0.00,VWS V14.01,2013-06-05 19:55:00,
2013-06-05 15:00:00,81.6,65.4,29.90,South,186,0.0,3.0,58,0.00,,---,0.00,VWS V14.01,2013-06-05 20:00:00,
2013-06-05 15:05:00,81.9,65.2,29.90,South,181,4.0,4.0,57,0.00,,---,0.00,VWS V14.01,2013-06-05 20:05:00,
2013-06-05 15:10:00,82.2,65.0,29.90,SSW,207,1.0,7.0,56,0.00,,---,0.00,VWS V14.01,2013-06-05 20:10:00,
2013-06-05 15:15:00,82.2,65.0,29.89,SW,219,3.0,5.0,56,0.00,,---,0.00,VWS V14.01,2013-06-05 20:15:00,
2013-06-05 15:20:00,82.0,65.3,29.89,SW,230,4.0,5.0,57,0.00,,---,0.00,VWS V14.01,2013-06-05 20:20:00,
2013-06-05 15:25:00,82.0,64.3,29.89,SSW,194,0.0,6.0,55,0.00,,---,0.00,VWS V14.01,2013-06-05 20:25:00,
2013-06-05 15:30:00,82.1,66.4,29.89,SSW,194,0.0,1.0,59,0.00,,---,0.00,VWS V14.01,2013-06-05 20:30:00,
2013-06-05 15:35:00,82.2,66.0,29.89,SW,229,4.0,5.0,58,0.00,,---,0.00,VWS V14.01,2013-06-05 20:35:00,
2013-06-05 15:40:00,82.3,64.5,29.89,SSW,202,1.0,2.0,55,0.00,,---,0.00,VWS V14.01,2013-06-05 20:40:00,
2013-06-05 15:45:00,82.1,63.8,29.88,SSW,205,6.0,7.0,54,0.00,,---,0.00,VWS V14.01,2013-06-05 20:45:00,
2013-06-05 15:50:00,82.1,64.9,29.88,South,178,4.0,6.0,56,0.00,,---,0.00,VWS V14.01,2013-06-05 20:50:00,
2013-06-05 15:55:00,82.1,63.8,29.88,SSW,192,3.0,5.0,54,0.00,,---,0.00,VWS V14.01,2013-06-05 20:55:00,
2013-06-05 16:00:00,82.3,63.5,29.87,South,191,4.0,4.0,53,0.00,,---,0.00,VWS V14.01,2013-06-05 21:00:00,
2013-06-05 16:05:00,82.4,62.5,29.87,SSW,192,0.0,0.0,51,0.00,,---,0.00,VWS V14.01,2013-06-05 21:05:00,
2013-06-05 16:10:00,82.4,64.6,29.87,SSW,192,0.0,1.0,55,0.00,,---,0.00,VWS V14.01,2013-06-05 21:10:00,
2013-06-05 16:15:00,82.3,64.0,29.87,SSW,192,0.0,0.0,54,0.00,,---,0.00,VWS V14.01,2013-06-05 21:15:00,
2013-06-05 16:20:00,82.5,62.6,29.87,South,186,2.0,3.0,51,0.00,,---,0.00,VWS V14.01,2013-06-05 21:20:00,
2013-06-05 16:25:00,82.6,62.7,29.87,South,186,0.0,0.0,51,0.00,,---,0.00,VWS V14.01,2013-06-05 21:25:00,
2013-06-05 16:30:00,82.6,63.8,29.86,South,181,2.0,2.0,53,0.00,,---,0.00,VWS V14.01,2013-06-05 21:30:00,
2013-06-05 16:35:00,82.5,63.7,29.86,South,181,0.0,0.0,53,0.00,,---,0.00,VWS V14.01,2013-06-05 21:35:00,
2013-06-05 16:40:00,82.3,61.8,29.86,ESE,109,0.0,1.0,50,0.00,,---,0.00,VWS V14.01,2013-06-05 21:40:00,
2013-06-05 16:45:00,82.5,63.7,29.86,ESE,109,0.0,1.0,53,0.00,,---,0.00,VWS V14.01,2013-06-05 21:45:00,
2013-06-05 16:51:00,82.7,62.8,29.86,ESE,109,2.0,3.0,51,0.00,,---,0.00,VWS V14.01,2013-06-05 21:51:00,
2013-06-05 16:56:00,82.8,63.9,29.86,ESE,115,2.0,2.0,53,0.00,,---,0.00,VWS V14.01,2013-06-05 21:56:00,
2013-06-05 17:01:00,83.0,63.6,29.85,South,190,3.0,3.0,52,0.00,,---,0.00,VWS V14.01,2013-06-05 22:01:00,
2013-06-05 17:06:00,83.1,64.2,29.86,South,175,3.0,4.0,53,0.00,,---,0.00,VWS V14.01,2013-06-05 22:06:00,
2013-06-05 17:11:00,83.1,64.8,29.85,South,175,0.0,1.0,54,0.00,,---,0.00,VWS V14.01,2013-06-05 22:11:00,
2013-06-05 17:16:00,83.2,62.7,29.85,SSW,196,0.0,0.0,50,0.00,,---,0.00,VWS V14.01,2013-06-05 22:16:00,
2013-06-05 17:21:00,83.4,64.5,29.85,SSW,196,2.0,2.0,53,0.00,,---,0.00,VWS V14.01,2013-06-05 22:21:00,
2013-06-05 17:26:00,83.5,62.9,29.84,SSW,196,0.0,0.0,50,0.00,,---,0.00,VWS V14.01,2013-06-05 22:26:00,
2013-06-05 17:31:00,83.4,62.8,29.84,SSW,196,0.0,0.0,50,0.00,,---,0.00,VWS V14.01,2013-06-05 22:31:00,
2013-06-05 17:36:00,83.4,62.8,29.84,SSW,196,0.0,0.0,50,0.00,,---,0.00,VWS V14.01,2013-06-05 22:36:00,
2013-06-05 17:41:00,83.4,63.4,29.84,SSW,196,2.0,3.0,51,0.00,,---,0.00,VWS V14.01,2013-06-05 22:41:00,
2013-06-05 17:46:00,83.3,63.3,29.84,SSW,196,0.0,1.0,51,0.00,,---,0.00,VWS V14.01,2013-06-05 22:46:00,
2013-06-05 17:51:00,83.2,63.8,29.84,SSW,196,3.0,3.0,52,0.00,,---,0.00,VWS V14.01,2013-06-05 22:51:00,
2013-06-05 17:56:00,83.0,63.0,29.84,SSW,196,1.0,2.0,51,0.00,,---,0.00,VWS V14.01,2013-06-05 22:56:00,
2013-06-05 18:01:00,82.9,64.6,29.84,SSW,196,0.0,1.0,54,0.00,,---,0.00,VWS V14.01,2013-06-05 23:01:00,
2013-06-05 18:06:00,82.5,64.2,29.84,SSW,196,3.0,3.0,54,0.00,,---,0.00,VWS V14.01,2013-06-05 23:06:00,
2013-06-05 18:11:00,82.1,63.3,29.84,SSW,196,0.0,0.0,53,0.00,,---,0.00,VWS V14.01,2013-06-05 23:11:00,
2013-06-05 18:16:00,82.0,64.8,29.84,SSW,196,0.0,0.0,56,0.00,,---,0.00,VWS V14.01,2013-06-05 23:16:00,
2013-06-05 18:21:00,81.7,64.5,29.84,SSW,196,0.0,0.0,56,0.00,,---,0.00,VWS V14.01,2013-06-05 23:21:00,
2013-06-05 18:26:00,81.4,64.2,29.84,SSW,196,0.0,0.0,56,0.00,,---,0.00,VWS V14.01,2013-06-05 23:26:00,
2013-06-05 18:31:00,80.8,64.7,29.84,SSW,196,0.0,0.0,58,0.00,,---,0.00,VWS V14.01,2013-06-05 23:31:00,
2013-06-05 18:36:00,79.9,64.8,29.84,SSW,196,0.0,0.0,60,0.00,,---,0.00,VWS V14.01,2013-06-05 23:36:00,
2013-06-05 18:41:00,79.2,66.0,29.84,SSW,196,0.0,0.0,64,0.00,,---,0.00,VWS V14.01,2013-06-05 23:41:00,
2013-06-05 18:46:00,78.5,64.9,29.84,SSW,196,0.0,0.0,63,0.00,,---,0.00,VWS V14.01,2013-06-05 23:46:00,
2013-06-05 18:51:00,78.1,65.4,29.84,SSW,196,0.0,1.0,65,0.00,,---,0.00,VWS V14.01,2013-06-05 23:51:00,
2013-06-05 18:56:00,77.7,65.0,29.84,SSW,196,0.0,0.0,65,0.00,,---,0.00,VWS V14.01,2013-06-05 23:56:00,
2013-06-05 19:01:00,77.5,63.9,29.84,SSW,196,0.0,0.0,63,0.00,,---,0.00,VWS V14.01,2013-06-06 00:01:00,
2013-06-05 19:06:00,77.3,64.6,29.84,SSW,196,0.0,0.0,65,0.00,,---,0.00,VWS V14.01,2013-06-06 00:06:00,
2013-06-05 19:12:00,77.3,64.6,29.84,SSW,196,0.0,0.0,65,0.00,,---,0.00,VWS V14.01,2013-06-06 00:12:00,
2013-06-05 19:17:00,77.2,65.4,29.84,SSW,196,0.0,0.0,67,0.00,,---,0.00,VWS V14.01,2013-06-06 00:17:00,
2013-06-05 19:22:00,77.1,65.7,29.85,SSW,196,0.0,0.0,68,0.00,,---,0.00,VWS V14.01,2013-06-06 00:22:00,
2013-06-05 19:27:00,76.9,65.5,29.84,SSW,196,0.0,0.0,68,0.00,,---,0.00,VWS V14.01,2013-06-06 00:27:00,
2013-06-05 19:32:00,76.8,65.9,29.84,SSW,196,0.0,0.0,69,0.00,,---,0.00,VWS V14.01,2013-06-06 00:32:00,
2013-06-05 19:37:00,76.6,66.1,29.84,SSW,196,0.0,0.0,70,0.00,,---,0.00,VWS V14.01,2013-06-06 00:37:00,
2013-06-05 19:42:00,76.3,65.8,29.84,SSW,196,0.0,0.0,70,0.00,,---,0.00,VWS V14.01,2013-06-06 00:42:00,
2013-06-05 19:47:00,76.0,65.9,29.84,SSW,196,0.0,0.0,71,0.00,,---,0.00,VWS V14.01,2013-06-06 00:47:00,
2013-06-05 19:52:00,75.7,65.2,29.85,SSW,196,0.0,0.0,70,0.00,,---,0.00,VWS V14.01,2013-06-06 00:52:00,
2013-06-05 19:57:00,75.5,65.4,29.85,SSW,196,0.0,0.0,71,0.00,,---,0.00,VWS V14.01,2013-06-06 00:57:00,
2013-06-05 20:02:00,75.3,65.3,29.85,SSW,196,0.0,0.0,71,0.00,,---,0.00,VWS V14.01,2013-06-06 01:02:00,
2013-06-05 20:07:00,75.1,65.5,29.85,SSW,196,0.0,0.0,72,0.00,,---,0.00,VWS V14.01,2013-06-06 01:07:00,
2013-06-05 20:12:00,74.9,65.3,29.85,SSW,196,0.0,0.0,72,0.00,,---,0.00,VWS V14.01,2013-06-06 01:12:00,
2013-06-05 20:17:00,74.8,66.3,29.85,SSW,196,0.0,0.0,75,0.00,,---,0.00,VWS V14.01,2013-06-06 01:17:00,
2013-06-05 20:22:00,74.6,66.5,29.85,SSW,196,0.0,0.0,76,0.00,,---,0.00,VWS V14.01,2013-06-06 01:22:00,
2013-06-05 20:27:00,74.4,66.3,29.85,SSW,196,0.0,0.0,76,0.00,,---,0.00,VWS V14.01,2013-06-06 01:27:00,
2013-06-05 20:32:00,74.2,66.2,29.85,SSW,196,0.0,0.0,76,0.00,,---,0.00,VWS V14.01,2013-06-06 01:32:00,
2013-06-05 20:37:00,74.0,66.0,29.85,SSW,196,0.0,0.0,76,0.00,,---,0.00,VWS V14.01,2013-06-06 01:37:00,
2013-06-05 20:42:00,73.8,65.8,29.85,SSW,196,0.0,0.0,76,0.00,,---,0.00,VWS V14.01,2013-06-06 01:42:00,
2013-06-05 20:47:00,73.7,65.3,29.84,SSW,196,0.0,0.0,75,0.00,,---,0.00,VWS V14.01,2013-06-06 01:47:00,
2013-06-05 20:52:00,73.5,65.1,29.85,SSW,196,0.0,0.0,75,0.00,,---,0.00,VWS V14.01,2013-06-06 01:52:00,
2013-06-05 20:57:00,73.3,64.9,29.85,SSW,196,0.0,0.0,75,0.00,,---,0.00,VWS V14.01,2013-06-06 01:57:00,
2013-06-05 21:02:00,73.1,65.1,29.85,SSW,196,0.0,0.0,76,0.00,,---,0.00,VWS V14.01,2013-06-06 02:02:00,
2013-06-05 21:07:00,73.0,65.4,29.85,SSW,196,0.0,0.0,77,0.00,,---,0.00,VWS V14.01,2013-06-06 02:07:00,
2013-06-05 21:12:00,72.8,65.6,29.85,SSW,196,0.0,1.0,78,0.00,,---,0.00,VWS V14.01,2013-06-06 02:12:00,
2013-06-05 21:17:00,72.7,65.4,29.85,SSW,196,0.0,0.0,78,0.00,,---,0.00,VWS V14.01,2013-06-06 02:17:00,
2013-06-05 21:22:00,72.6,65.7,29.86,SSW,196,0.0,0.0,79,0.00,,---,0.00,VWS V14.01,2013-06-06 02:22:00,
2013-06-05 21:28:00,72.5,65.6,29.86,SSW,196,0.0,0.0,79,0.00,,---,0.00,VWS V14.01,2013-06-06 02:28:00,
2013-06-05 21:33:00,72.4,65.9,29.86,SSW,196,0.0,1.0,80,0.00,,---,0.00,VWS V14.01,2013-06-06 02:33:00,
2013-06-05 21:38:00,72.3,66.2,29.86,SSW,196,1.0,1.0,81,0.00,,---,0.00,VWS V14.01,2013-06-06 02:38:00,
2013-06-05 21:43:00,72.2,66.1,29.86,SSW,196,0.0,0.0,81,0.00,,---,0.00,VWS V14.01,2013-06-06 02:43:00,
2013-06-05 21:48:00,72.2,66.1,29.86,SSW,196,0.0,0.0,81,0.00,,---,0.00,VWS V14.01,2013-06-06 02:48:00,
2013-06-05 21:53:00,72.1,66.3,29.86,SSW,196,0.0,0.0,82,0.00,,---,0.00,VWS V14.01,2013-06-06 02:53:00,
2013-06-05 21:58:00,72.0,65.9,29.86,SSW,196,0.0,0.0,81,0.00,,---,0.00,VWS V14.01,2013-06-06 02:58:00,
2013-06-05 22:03:00,72.0,66.6,29.86,SSW,196,0.0,1.0,83,0.00,,---,0.00,VWS V14.01,2013-06-06 03:03:00,
2013-06-05 22:08:00,71.9,66.8,29.85,SSW,196,0.0,1.0,84,0.00,,---,0.00,VWS V14.01,2013-06-06 03:08:00,
2013-06-05 22:13:00,71.9,66.8,29.86,SSW,196,0.0,0.0,84,0.00,,---,0.00,VWS V14.01,2013-06-06 03:13:00,
2013-06-05 22:18:00,71.8,66.4,29.86,SSW,196,0.0,0.0,83,0.00,,---,0.00,VWS V14.01,2013-06-06 03:18:00,
2013-06-05 22:23:00,71.7,66.6,29.86,SSW,196,0.0,0.0,84,0.00,,---,0.00,VWS V14.01,2013-06-06 03:23:00,
2013-06-05 22:28:00,71.7,66.9,29.86,SSW,196,0.0,0.0,85,0.00,,---,0.00,VWS V14.01,2013-06-06 03:28:00,
2013-06-05 22:33:00,71.7,66.9,29.85,SSW,196,0.0,0.0,85,0.00,,---,0.00,VWS V14.01,2013-06-06 03:33:00,
2013-06-05 22:38:00,71.6,66.9,29.85,SSW,196,0.0,0.0,85,0.00,,---,0.00,VWS V14.01,2013-06-06 03:38:00,
2013-06-05 22:43:00,71.4,67.0,29.85,SSW,196,0.0,0.0,86,0.00,,---,0.00,VWS V14.01,2013-06-06 03:43:00,
2013-06-05 22:48:00,71.1,66.7,29.85,SSW,196,2.0,2.0,86,0.00,,---,0.00,VWS V14.01,2013-06-06 03:48:00,
2013-06-05 22:53:00,71.0,66.3,29.85,SSW,196,1.0,2.0,85,0.00,,---,0.00,VWS V14.01,2013-06-06 03:53:00,
2013-06-05 22:58:00,70.8,66.1,29.85,SSW,196,0.0,0.0,85,0.00,,---,0.00,VWS V14.01,2013-06-06 03:58:00,
2013-06-05 23:01:00,70.7,66.0,29.85,SSW,196,0.0,0.0,85,0.00,,---,0.00,VWS V14.01,2013-06-06 04:01:00,
2013-06-05 23:02:00,70.7,66.0,29.85,SSW,196,0.0,0.0,85,0.00,,---,0.00,VWS V14.01,2013-06-06 04:02:00,
2013-06-05 23:07:00,70.6,65.9,29.84,SSW,196,0.0,0.0,85,0.00,,---,0.00,VWS V14.01,2013-06-06 04:07:00,
2013-06-05 23:12:00,70.6,65.9,29.84,SSW,196,0.0,0.0,85,0.00,,---,0.00,VWS V14.01,2013-06-06 04:12:00,
2013-06-05 23:17:00,70.6,65.9,29.84,SSW,196,0.0,0.0,85,0.00,,---,0.00,VWS V14.01,2013-06-06 04:17:00,
2013-06-05 23:22:00,70.5,65.8,29.84,SSW,196,0.0,0.0,85,0.00,,---,0.00,VWS V14.01,2013-06-06 04:22:00,
2013-06-05 23:27:00,70.4,65.3,29.84,SSW,196,0.0,0.0,84,0.00,,---,0.00,VWS V14.01,2013-06-06 04:27:00,
2013-06-05 23:32:00,70.3,65.2,29.84,SSW,196,0.0,0.0,84,0.00,,---,0.00,VWS V14.01,2013-06-06 04:32:00,
2013-06-05 23:37:00,70.3,65.2,29.84,SSW,196,0.0,0.0,84,0.00,,---,0.00,VWS V14.01,2013-06-06 04:37:00,
2013-06-05 23:42:00,70.4,65.7,29.84,SSW,196,0.0,0.0,85,0.00,,---,0.00,VWS V14.01,2013-06-06 04:42:00,
2013-06-05 23:47:00,70.4,66.0,29.83,SSW,196,0.0,0.0,86,0.00,,---,0.00,VWS V14.01,2013-06-06 04:47:00,
2013-06-05 23:52:00,70.5,66.1,29.83,SSW,196,0.0,0.0,86,0.00,,---,0.00,VWS V14.01,2013-06-06 04:52:00,
2013-06-05 23:57:00,70.5,66.1,29.83,SSW,196,0.0,0.0,86,0.00,,---,0.00,VWS V14.01,2013-06-06 04:57:00,